Location: Campolattaro
(41.2833°N, 14.7333°E)
Time: 19:23:54
(UTC+00:00)

Cosmos 2333 Rocket - Pass Details

Date: 19 May 2025
Orbit: 840 x 862 km, 70.8° (Epoch: 19 June)

Event Time Altitude Azimuth Distance (km) Brightness Sun altitude
Rises 22:06:57 0° 342° (NNW) 3,435 6.6 -27.6°
Reaches altitude 10° 22:09:37 10° 351° (N) 2,492 5.6 -27.7°
Maximum altitude 22:14:53 37° 58° (ENE) 1,310 3.3 -27.9°
Enters shadow 22:15:54 34° 80° (E) 1,370 3.2 -28.0°
